Find Starlink 30252

NORAD ID: 57607 Int'l Des: 2023-119 Owner: SPXS Country: US Constellation: starlink operational
LEOCIRCULAR

リアルタイム位置

3D地球を読み込み中...

Starlink 30252について

説明を読み込み中...

次回通過

Passes for default location (London). Set your location on the main map for personalized predictions.

高度履歴

Loading altitude history...

軌道要素

1 57607U 23119F 26124.99632249 -.00000073 00000-0 68571-5 0 9993
2 57607 43.0035 108.6469 0000999 274.5430 85.5308 15.27570178151872
Epoch: May 4, 2026 • Age: 32 hours

現在のステータス

高度 485.4 km
速度 7.63 km/s
衛星直下点 36.84°N, 176.59°E
打ち上げ日 Aug 11, 2023
運用期間 2.7 years
タイプ internet

技術仕様

分類 Payload
質量 730.00 kg
乾燥質量 700.00 kg
総質量 730.00 kg
長さ 0.30 m
直径 4.10 m
スパン 29.00 m
形状 Box + pan
製造者 SPXS
バスタイプ Starlink V2M
フェーズステータス In Orbit
所有者/国 SPXS/US

Most Searched